Regional Weather Roundup
Issued by NWS

Home | Current Version | Previous Version | Graphics & Text | Print | Product List | Glossary On
Versions: 1 2 3 4 5 6 7 8 9 10 11 12 13 14 15 16 17 18 19 20 21 22 23 24 25 26 27 28 29 30 31 32 33 34 35 36 37 38 39 40 41 42 43 44 45 46 47 48 49 50
000
ASUS45 KABQ 031410
RWRNM
WEATHER ROUNDUP FOR NEW MEXICO
NATIONAL WEATHER SERVICE ALBUQUERQUE NM
800 AM MDT SUN MAY 03 2015

NOTE: "FAIR" MEANS FEW OR NO CLOUDS BELOW 12,000 FEET AGL WITH NO
       SIGNIFICANT WEATHER OR OBSTRUCTIONS TO VISION.

      THIS PRODUCT IS RELEASED AS TWO VERSIONS.  ONE VERSION NEAR
      THE TOP OF THE HOUR CONTAINING PRELIMINARY DATA FROM ALBUQUERQUE
      AND OTHER STATIONS.  A FINAL VERSION WITH ADDITIONAL DATA IS
      ISSUED ABOUT 10 MINUTES AFTER THE HOUR.

NMZ501-503-504-510>518-031500-
NORTHWEST PLATEAU/NORTHCENTRAL MOUNTAINS

CITY           SKY/WX    TMP DP  RH WIND       PRES   REMARKS
FARMINGTON     MOSUNNY   59  37  44 NE7       30.06R
LOS ALAMOS     PTSUNNY   52  35  52 CALM      30.14S
SANTA FE       MOSUNNY   53  35  50 N6        30.09R
TAOS           MOSUNNY   46  30  53 N5        30.15R
ANGEL FIRE     FAIR      38  33  82 CALM      30.20R

$$
NMZ402-403-502-505>509-031500-
WESTCENTRAL MOUNTAINS/SOUTHWEST MOUNTAINS

CITY           SKY/WX    TMP DP  RH WIND       PRES   REMARKS
GALLUP         MOSUNNY   47  40  76 S3        30.12R
GRANTS         PTSUNNY   46  38  75 NW6       30.14R
SILVER CITY      N/A     59  36  41 NW9       30.09R

$$
NMZ407-409-411-412-031500-
SOUTHERN DESERTS

CITY           SKY/WX    TMP DP  RH WIND       PRES   REMARKS
LORDSBURG      PTSUNNY   59  36  41 CALM      30.03R
DEMING         SUNNY     58  37  45 SW5       30.02R
LAS CRUCES     SUNNY     65  37  34 CALM      30.02R
HOLLOMAN AFB   SUNNY     70  35  27 NE8       29.96R
ALAMOGORDO     MOSUNNY   70  36  28 N7        29.98R
T OR C         SUNNY     64  35  34 W8        30.02R

$$
NMZ519>523-031500-
CENTRAL VALLEYS/CENTRAL HIGHLANDS

CITY           SKY/WX    TMP DP  RH WIND       PRES   REMARKS
ALBUQUERQUE    MOSUNNY   57  38  48 N7        30.07R
DOUBLE EAGLE   PTSUNNY   57  39  51 VRB7      30.08S
MORIARTY ARPT  FAIR      51  34  52 CALM      30.11R
CLINES CORNERS MOSUNNY   57  33  40 NW10      30.11R
BELEN          CLOUDY    61  38  41 NW3       30.06R
SOCORRO        FAIR      62  37  38 CALM      30.04R

$$
NMZ524>526-539-540-031500-
SOUTHCENTRAL MOUNTAINS

CITY           SKY/WX    TMP DP  RH WIND       PRES   REMARKS
RUIDOSO        PTSUNNY   59  32  36 NW5       30.13S

$$
NMZ527>531-031500-
NORTHEAST HIGHLANDS/NORTHEAST PLAINS

CITY           SKY/WX    TMP DP  RH WIND       PRES   REMARKS
LAS VEGAS      CLOUDY    49  33  54 CALM      30.10R
RATON          MOSUNNY   49  36  61 E6        30.05S
CLAYTON        PTSUNNY   62  39  42 W9        29.98R

$$
NMZ532>537-031500-
EASTCENTRAL PLAINS

CITY           SKY/WX    TMP DP  RH WIND       PRES   REMARKS
TUCUMCARI      SUNNY     65  43  44 W7        29.96R
CANNON AFB     SUNNY     65  47  52 SW13      29.98R
CLOVIS AIRPORT SUNNY     63  45  51 SW9       29.98R

$$
NMZ028-029-538-031500-
SOUTHEAST PLAINS

CITY           SKY/WX    TMP DP  RH WIND       PRES   REMARKS
ROSWELL        MOSUNNY   62  48  60 NE3       29.96R
ARTESIA        MOSUNNY   61  46  59 S6        29.98R
CARLSBAD       PTSUNNY   64  46  52 E7        29.95R
HOBBS          SUNNY     59  46  63 SE8       29.99S


$$


USA.gov is the U.S. government's official web portal to all federal, state and local government web resources and services.